Weather History for Lihue, HI

Change the Weather History Date:

Wednesday, November 20, 2013

  Actual Average Record
Temperature  
Mean Temperature 75 °F 75 °F  
Max Temperature 82 °F 80 °F 85 °F (1954)
Min Temperature 68 °F 71 °F 63 °F (1952)
Degree Days  
Heating Degree Days 0 0  
Month to date heating degree days 0 0  
Since 1 July heating degree days 0 0  
Cooling Degree Days 10 10  
Month to date cooling degree days 196 226  
Year to date cooling degree days 3342 3593  
Growing Degree Days 25 (Base 50)    
Moisture  
Dew Point 70 °F    
Average Humidity 85    
Maximum Humidity 100    
Minimum Humidity 69    
Precipitation  
Precipitation 0.09 in 0.14 in 4.30 in (1957)
Month to date precipitation 3.17 3.01  
Year to date precipitation 30.73 30.40  
Snow  
Snow 0.00 in - - ()
Month to date snowfall 0.0  
Since 1 July snowfall 0.0  
Since 1 September snowfall 0.0  
Snow Depth 0.00 in    
Sea Level Pressure  
Sea Level Pressure 29.95 in    
Wind  
Wind Speed 6 mph (WSW)    
Max Wind Speed 16 mph    
Max Gust Speed 18 mph    
Visibility 10 miles    
Events Rain    
T = Trace of Precipitation, MM = Missing Value Source: NWS Daily Summary

Daily Weather History Graph

Daily Weather History Graph

Search for Another Location

Airport:

Trip Planner

Search our weather history database for the weather conditions in past years. The results will help you decide how hot, cold, wet, or windy it might be!

Date:

Astronomy

Nov. 20, 2013 Rise Set
Actual Time 6:52 AM HST 5:53 PM HST
Civil Twilight 6:28 AM HST 6:17 PM HST
Nautical Twilight 6:01 AM HST 6:44 PM HST
Astronomical Twilight 5:34 AM HST 7:11 PM HST
Moon 8:45 PM HST 9:26 AM HST
Length of Visible Light 11h 48m
Length of Day
11h 00m
Waning Gibbous, 90% of the Moon is Illuminated
Nov 20
Waning Gibbous
Nov 25
Last Quarter
Dec 2
New
Dec 9
First Quarter
Dec 16
Full

Hourly Weather History & Observations

Time (HST) Temp. Heat Index Dew Point Humidity Pressure Visibility Wind Dir Wind Speed Gust Speed Precip Events Conditions
12:53 AM 69.1 °F - 66.9 °F 93% 29.96 in 10.0 mi West 5.8 mph - N/A   Overcast
1:53 AM 68.0 °F - 66.9 °F 96% 29.95 in 10.0 mi West 3.5 mph - N/A   Partly Cloudy
2:53 AM 70.0 °F - 68.0 °F 93% 29.94 in 10.0 mi West 3.5 mph - N/A   Scattered Clouds
3:53 AM 69.1 °F - 68.0 °F 96% 29.93 in 10.0 mi West 6.9 mph - N/A   Partly Cloudy
4:53 AM 70.0 °F - 69.1 °F 97% 29.93 in 10.0 mi WSW 4.6 mph - N/A   Scattered Clouds
5:53 AM 70.0 °F - 69.1 °F 97% 29.94 in 10.0 mi West 6.9 mph - N/A   Partly Cloudy
6:53 AM 69.1 °F - 68.0 °F 96% 29.95 in 9.0 mi WSW 3.5 mph - N/A   Scattered Clouds
7:53 AM 71.1 °F - 70.0 °F 96% 29.96 in 9.0 mi West 4.6 mph - N/A   Clear
8:53 AM 73.0 °F - 70.0 °F 90% 29.98 in 9.0 mi WSW 3.5 mph - N/A   Clear
9:53 AM 78.8 °F - 71.6 °F 78% 30.00 in 9.0 mi South 3.5 mph - N/A   Clear
10:53 AM 78.8 °F - 72.0 °F 79% 29.98 in 10.0 mi South 8.1 mph - N/A   Clear
11:53 AM 80.6 °F 84.7 °F 72.0 °F 75% 29.95 in 10.0 mi South 8.1 mph - N/A   Clear
12:53 PM 82.4 °F 87.4 °F 72.0 °F 71% 29.92 in 10.0 mi South 10.4 mph - N/A   Partly Cloudy
1:53 PM 80.6 °F 85.2 °F 73.0 °F 78% 29.90 in 10.0 mi South 10.4 mph - N/A   Clear
2:53 PM 78.8 °F - 72.0 °F 79% 29.90 in 10.0 mi SSW 6.9 mph - N/A   Partly Cloudy
3:53 PM 77.0 °F - 71.1 °F 82% 29.89 in 8.0 mi SSE 9.2 mph - 0.00 in   Mostly Cloudy
4:53 PM 73.0 °F - 71.1 °F 93% 29.91 in 8.0 mi West 6.9 mph - 0.04 in Rain Light Rain
5:53 PM 72.0 °F - 70.0 °F 93% 29.93 in 10.0 mi South 12.7 mph - 0.05 in Rain Light Rain
6:53 PM 71.1 °F - 70.0 °F 96% 29.94 in 10.0 mi Calm Calm - 0.00 in Rain Light Rain
7:53 PM 71.1 °F - 71.1 °F 100% 29.94 in 10.0 mi WSW 4.6 mph - 0.00 in   Clear
8:36 PM 69.8 °F - 69.8 °F 100% 29.98 in 10.0 mi SW 6.9 mph - N/A   Partly Cloudy
8:53 PM 70.0 °F - 70.0 °F 100% 29.99 in 10.0 mi West 5.8 mph - N/A   Scattered Clouds
9:06 PM 69.8 °F - 69.8 °F 100% 29.99 in 10.0 mi SW 6.9 mph - N/A   Partly Cloudy
9:53 PM 70.0 °F - 69.1 °F 97% 30.00 in 10.0 mi West 4.6 mph - N/A   Partly Cloudy
10:16 PM 69.8 °F - 68.0 °F 94% 30.01 in 10.0 mi West 4.6 mph - N/A   Partly Cloudy
10:53 PM 69.1 °F - 68.0 °F 96% 30.00 in 10.0 mi West 3.5 mph - N/A   Partly Cloudy
11:53 PM 68.0 °F - 66.9 °F 96% 29.98 in 10.0 mi West 5.8 mph - N/A   Clear